Regional Weather Roundup
Issued by NWS

Home | Current Version | Previous Version | Graphics & Text | Print | Product List | Glossary On
Versions: 1 2 3 4 5 6 7 8 9 10 11 12 13 14 15 16 17 18 19 20 21 22 23 24 25 26 27 28 29 30 31 32 33 34 35 36 37 38 39 40 41 42 43 44 45 46 47 48 49 50
000
ASUS43 KFSD 291710
RWRSD

WEATHER ROUNDUP FOR SOUTH DAKOTA
NATIONAL WEATHER SERVICE SIOUX FALLS SD
1200 PM CDT FRI AUG 29 2014

NOTE: "FAIR" INDICATES FEW OR NO CLOUDS BELOW 12,000 FEET WITH NO
SIGNIFICANT WEATHER AND/OR OBSTRUCTIONS TO VISIBILITY.


SDZ001>005-009-010-012>017-291800-
NORTHWEST AND NORTH CENTRAL SOUTH DAKOTA

CITY           SKY/WX    TMP DP  RH WIND       PRES   REMARKS
BUFFALO          N/A     69  54  58 NW30      29.92S
FAITH            N/A     73  54  51 N28G33    29.91S
MOBRIDGE       SUNNY     73  62  68 NW22G30   29.83S
$$

SDZ012>016-024>037-041>051-057-063-072>074-291800-
SOUTHWEST AND SOUTH CENTRAL SOUTH DAKOTA

CITY           SKY/WX    TMP DP  RH WIND       PRES   REMARKS
RAPID CTY ARPT LGT RAIN  64  53  67 N16G28    30.00R
PIERRE         PTSUNNY   71  67  87 NW13      29.84S
CUSTER         LGT RAIN  62  50  64 CALM      30.09S
ELLSWORTH AFB  LGT RAIN  66  54  64 N18G26    30.01
PHILIP         SUNNY     76  59  55 N23G33    29.89R
PINE RIDGE     SUNNY     75  54  47 N17G25    29.98S
WINNER         FAIR      77  65  66 N7        29.86R
$$

SDZ004>011-016>023-039-040-291800-
NORTHEAST SOUTH DAKOTA

CITY           SKY/WX    TMP DP  RH WIND       PRES   REMARKS
ABERDEEN       CLOUDY    67  66  97 S8        29.80S
WATERTOWN      CLOUDY    70  66  87 N3        29.82R
SISSETON         N/A     70  67  90 CALM      29.78F
$$

SDZ017-020-022-023-036>040-048>070-291800-
SOUTHEAST SOUTH DAKOTA

CITY           SKY/WX    TMP DP  RH WIND       PRES   REMARKS
SIOUX FALLS    CLOUDY    73  69  87 S5        29.81S
HURON          CLOUDY    72  67  84 N10       29.82R
CHAMBERLAIN    PTSUNNY   72  66  82 CALM      29.84S
MITCHELL       LGT RAIN  72  69  90 N8        29.83R
YANKTON        CLOUDY    72  66  83 CALM      29.82F
$$

ABBREVIATIONS USED IN REMARKS
   TC - TEMPERATURE IN CELSIUS
  WCI - WIND CHILL INDEX
   HX - HEAT INDEX
  VSB - VISIBILITY



USA.gov is the U.S. government's official web portal to all federal, state and local government web resources and services.